Location: Chiroubles
(46.1812°N, 4.6660°E)
Time: 02:06:20
(UTC+00:00)

Iridium 4 Rocket - Pass Details

Date: 15 August 2020
Orbit: 586 x 903 km, 86.9° (Epoch: 27 September)

Event Time Altitude Azimuth Distance (km) Brightness Sun altitude
Exits shadow 20:38:38 23° 87° (E) 1,298 4.3 -16.9°
Maximum altitude 20:38:51 23° 82° (E) 1,294 4.3 -16.9°
Drops below altitude 10° 20:42:07 10° 30° (NNE) 1,921 5.7 -17.3°
Sets 20:44:38 0° 16° (NNE) 2,827 6.8 -17.6°
